sat.trackr.live / text

‹ back to catalog

SHERPA-LTC2

NORAD 53754 · 2022-107BG

PAYLOAD ACTIVE UNKNOWN

§ Identity

Operator
Country
US
Launch date
2022-09-05
Launch site
AFETR
Launch vehicle
Mass (kg)
RCS (m²)

External: N2YO · Heavens-Above · Gunter

§ Orbital elements

Epoch: 2026-09-20T05:41:55.114944Z

Period
97.94 min
Inclination
53.2345°
Eccentricity
0.0393641
Mean motion
14.70335029 rev/d
Perigee alt
382.9 km
Apogee alt
937.0 km
Semi-major
7,038.1 km
B*
1.5551e-4
RAAN
177.7274°
Arg perigee
132.0972°
Mean anomaly
231.4189°
Rev number
21,652

§ Raw data

SHERPA-LTC21 53754U 22107BG  26263.23744346  .00002893  00000+0  15551-3 0  99992 53754  53.2345 177.7274 0393641 132.0972 231.4189 14.70335029216521

JSON: /api/v1/satellites/53754 · /tle

For live sub-satellite position, see the globe view (requires WebGL).

§ Visibility from observer

Set your observer location to see the next 7 days of passes ≥ 10°. The values pass through the URL so the page stays shareable.

No JS? Fill the form by hand. The geolocation button needs JavaScript.

§ Radio — SatNOGS DB

ModeDescriptionDownlinkUplink
FM UHF STRF 400.480 MHz
FM UHF Unknown 400.520 MHz

2 transmitters · refreshed weekly from db.satnogs.org